STRAND-1

Last updated on Thu Nov 21 2024 00:03:02 GMT+0000 (Coordinated Universal Time)

1 39090U 13009E 24324.49303044 .00000786 00000+0 28232-3 0 9996 2 39090 98.3779 148.5567 0009377 143.0747 217.1087 14.36462659614535
UTC large
Height (km)
Speed (km/s)
/
Latitude / Longitude
Inclination (degrees)
Orbital Period (minutes)
Azimuth
Elevation
Range (km)
Doppler Factor

Next 0 passes for location: London (51.5072 / 0.1276)

Sorry there are no passes over London.